Puerto Plata, Dominican Republic

3:04 PM AST on January 22, 2017 (GMT -0400)
Puerto Plata

Weather History for MDPP - May, 2013

Change the Weather History Date:

Tuesday, May 28, 2013

  Actual Average Record
Temperature  
Mean Temperature 80 °F -  
Max Temperature 87 °F 87 °F 91 °F (1997)
Min Temperature 72 °F 74 °F 69 °F (2014)
Cooling Degree Days 14    
Growing Degree Days 30 (Base 50)    
Moisture  
Dew Point 75 °F    
Average Humidity 87    
Maximum Humidity 95    
Minimum Humidity 69    
Precipitation  
Precipitation 0.00 in - - ()
Sea Level Pressure  
Sea Level Pressure 30.01 in    
Wind  
Wind Speed 5 mph ()    
Max Wind Speed 16 mph    
Max Gust Speed -    
Visibility 6.0 miles    
Events Rain , Thunderstorm    
Averages and records for this station are not official NWS values.
T = Trace of Precipitation, MM = Missing Value Source: Averaged Metar Reports

Daily Weather History Graph

Daily Weather History Graph

Search for Another Location

Airport or City:

Trip Planner

Search our weather history database for the weather conditions in past years. The results will help you decide how hot, cold, wet, or windy it might be!

Date:

Astronomy

May. 28, 2013 Rise Set
Actual Time 6:03 AM AST 7:16 PM AST
Civil Twilight 5:38 AM AST 7:40 PM AST
Nautical Twilight 5:10 AM AST 8:08 PM AST
Astronomical Twilight 4:40 AM AST 8:38 PM AST
Moon 10:53 PM AST (5/28) 9:36 AM AST (5/28)
Length of Visible Light 14h 01m
Length of Day
13h 13m
Waning Gibbous, 83% of the Moon is Illuminated
May 28
Waning Gibbous
May 31
Last Quarter
Jun 8
New
Jun 16
First Quarter
Jun 23
Full

Hourly Weather History & Observations

Time (AST) Temp. Heat Index Dew Point Humidity Pressure Visibility Wind Dir Wind Speed Gust Speed Precip Events Conditions
2:00 AM 78.8 °F - 75.2 °F 89% 30.01 in 5.0 mi Calm Calm - N/A Rain , Thunderstorm Light Thunderstorms and Rain
5:00 AM 75.2 °F - 73.4 °F 94% 30.01 in 6.2 mi Calm Calm - N/A Thunderstorm Thunderstorm
8:00 AM 75 °F - 74 °F 95% 30.03 in 5 mi Calm Calm - - Rain Light Rain
8:00 AM - - 73.4 °F N/A% 30.01 in 5.0 mi Calm Calm - N/A Rain Light Rain
9:00 AM 75.2 °F - 73.4 °F 94% 30.04 in 6.2 mi East 4.6 mph - N/A   Mostly Cloudy
10:00 AM 78.8 °F - 75.2 °F 89% 30.06 in 6.2 mi ESE 12.7 mph - N/A   Scattered Clouds
11:00 AM 80.6 °F 86.2 °F 75.2 °F 84% 30.04 in 6.2 mi ESE 10.4 mph - N/A   Mostly Cloudy
12:00 PM 86.0 °F 96.9 °F 77.0 °F 74% 30.04 in 6.2 mi ESE 13.8 mph - N/A   Scattered Clouds
1:00 PM 84.2 °F 94.1 °F 77.0 °F 79% 30.01 in 6.2 mi East 12.7 mph - N/A   Scattered Clouds
2:00 PM 86 °F - 77 °F 69% 30.01 in 10 mi East 15.7 mph - -   Partly Cloudy
2:00 PM 86.0 °F 96.9 °F 77.0 °F 74% 30.01 in 6.2 mi East 16.1 mph - N/A   Scattered Clouds
3:00 PM 86.0 °F 96.9 °F 77.0 °F 74% 29.98 in 6.2 mi East 13.8 mph - N/A   Scattered Clouds
4:00 PM 86.0 °F 96.9 °F 77.0 °F 74% 29.98 in 5.0 mi ESE 16.1 mph - N/A Rain Light Rain
5:00 PM 77 °F - 74 °F 90% 29.99 in 4 mi East 6.7 mph - - Rain , Thunderstorm Thunderstorms and Rain
5:00 PM 77.0 °F - 75.2 °F 94% 29.98 in - East 5.8 mph - N/A Rain , Thunderstorm Light Thunderstorms and Rain
5:38 PM 77.0 °F - 73.4 °F 89% 29.98 in 2.5 mi ESE 11.5 mph - N/A   Overcast
6:00 PM 75.2 °F - 73.4 °F 94% 29.98 in 4.3 mi East 9.2 mph - N/A Rain , Thunderstorm Light Thunderstorms and Rain
7:00 PM 75.2 °F - 73.4 °F 94% 29.98 in 3.7 mi SE 6.9 mph - N/A Rain Rain
8:00 PM 74 °F - 72 °F 92% 30.00 in 10 mi East 4.5 mph - - Rain Light Rain
8:00 PM 73.4 °F - 71.6 °F 94% 29.98 in 6.2 mi East 4.6 mph - N/A   Overcast
11:00 PM 75 °F - 73 °F 92% 30.05 in 10 mi Calm Calm - -   Scattered Clouds
11:00 PM 75.2 °F - 73.4 °F 94% 30.04 in 6.2 mi Calm Calm - N/A   Scattered Clouds